This demonstration page uses our WeatherBlox Daily Observations layout. Learn more.

Left ArrowRight Arrow

Hourly Observations for July 11, 2022

Temp ( °F °C ) Dew Point ( °F °C ) Humidity (%) Winds ( mph kmh ) Pressure ( in mb ) Visibility ( mi km ) Precip ( " mm )
12:53 am 00:53 Clear 89 31.7 70 21.1 53 53 ESE 9 15 29.88 1012 10 16 0.00 0.00
1:53 am 01:53 Clear 87 30.6 72 22.2 61 61 ESE 10 17 29.86 1011 10 16 0.00 0.00
2:53 am 02:53 Clear 86 30 73 22.8 65 65 ESE 9 15 29.85 1011 10 16 0.00 0.00
3:53 am 03:53 Clear 84 28.9 74 23.3 72 72 ESE 12 19 29.85 1011 10 16 0.00 0.00
4:53 am 04:53 Clear 82 27.8 74 23.3 77 77 ESE 9 15 29.86 1011 10 16 0.00 0.00
5:53 am 05:53 Clear 81 27.2 73 22.8 77 77 E 6 9 29.86 1011 10 16 0.00 0.00
6:53 am 06:53 Sunny 80 26.7 73 22.8 79 79 ESE 7 11 29.87 1012 10 16 0.00 0.00
7:53 am 07:53 Sunny 81 27.2 74 23.3 79 79 E 8 13 29.88 1012 10 16 0.00 0.00
8:53 am 08:53 Sunny 83 28.3 74 23.3 74 74 E 6 9 29.87 1012 10 16 0.00 0.00
9:53 am 09:53 Sunny 86 30 75 23.9 70 70 E 6 9 29.88 1012 10 16 0.00 0.00
10:53 am 10:53 Sunny 91 32.8 74 23.3 57 57 ENE 8 13 29.87 1011 10 16 0.00 0.00
11:53 am 11:53 Mostly Sunny 95 35 70 21.1 44 44 ENE 8 13 29.86 1011 10 16 0.00 0.00
12:53 pm 12:53 Mostly Sunny 98 36.7 67 19.4 36 36 VRB 6 9 29.85 1011 10 16 0.00 0.00
1:53 pm 13:53 Sunny 100 37.8 66 18.9 33 33 NE 10 17 29.83 1010 10 16 0.00 0.00
2:53 pm 14:53 Mostly Sunny 100 37.8 64 17.8 31 31 Calm 29.82 1010 10 16 0.00 0.00
3:53 pm 15:53 Mostly Sunny 101 38.3 62 16.7 28 28 NE 12 19 29.80 1009 10 16 0.00 0.00
4:53 pm 16:53 Mostly Sunny 101 38.3 59 15 25 25 E 7 11 29.78 1009 10 16 0.00 0.00
5:53 pm 17:53 Mostly Sunny 102 38.9 60 15.6 25 25 E 7 11 29.77 1008 10 16 0.00 0.00
6:53 pm 18:53 Sunny 100 37.8 60 15.6 27 27 ENE 5 7 29.75 1008 10 16 0.00 0.00
7:53 pm 19:53 Sunny 99 37.2 60 15.6 28 28 E 8 13 29.75 1008 10 16 0.00 0.00
8:53 pm 20:53 Clear 96 35.6 61 16.1 31 31 ENE 5 7 29.78 1008 10 16 0.00 0.00
9:53 pm 21:53 Clear 94 34.4 63 17.2 36 36 E 5 7 29.80 1009 10 16 0.00 0.00
10:53 pm 22:53 Clear 92 33.3 63 17.2 38 38 E 3 6 29.83 1010 10 16 0.00 0.00
11:53 pm 23:53 Clear 91 32.8 65 18.3 42 42 E 7 11 29.84 1011 10 16 0.00 0.00

Powered by AerisWeather